Location: *
(42.0175°N, 9.4056°E)
Time: 09:49:14
(UTC+00:00)

ATLAS 2AS CENTAUR R/B - Pass Details

Date: 25 August 2019
Orbit: 919 x 1292 km, 63.6° (Epoch: 18 October)

Event Time Altitude Azimuth Distance (km) Brightness Sun altitude
Rises 23:42:21 0° 325° (NW) 4,216 6.4 -37.2°
Reaches altitude 10° 23:45:18 10° 329° (NNW) 3,209 5.7 -37.2°
Enters shadow 23:52:23 59° 29° (NNE) 1,335 3.2 -37.0°
